DW9558 Weather Reports


Display with metric or nautical units.
time (UTC)temp
F
wind
direction
speed
MPH
gust
MPH
rain 1hr
in
rain 24hr
in
rain mn
in
humidity
%
barometer
mb
20220818224548 102 343 0.0 5.0 0.00 0.00 0.00 26 1015.3
20220818223118 102 345 0.0 5.0 0.00 0.00 0.00 27 1015.5
20220818221612 101 345 0.0 4.0 0.00 0.00 0.00 27 1015.7
20220818220028 100 345 2.0 8.0 0.00 0.00 0.00 28 1015.8
20220818214535 100 345 2.0 8.0 0.00 0.00 0.00 29 1015.9
20220818213018 99 345 1.0 4.0 0.00 0.00 0.00 30 1016.1
20220818211530 99 346 1.0 3.0 0.00 0.00 0.00 30 1016.4
20220818210023 97 345 0.0 6.0 0.00 0.00 0.00 31 1016.4
20220818204516 97 345 0.0 4.0 0.00 0.00 0.00 30 1016.7
20220818203008 96 345 0.0 2.0 0.00 0.00 0.00 32 1016.8
20220818201601 96 345 0.0 6.0 0.00 0.00 0.00 32 1016.9
20220818200105 95 346 0.0 2.0 0.00 0.00 0.00 33 1017.1
20220818194605 93 345 0.0 2.0 0.00 0.00 0.00 34 1017.3
20220818193103 92 345 0.0 2.0 0.00 0.00 0.00 35 1017.4
20220818191547 90 345 1.0 5.0 0.00 0.00 0.00 38 1017.5
20220818190048 89 345 1.0 5.0 0.00 0.00 0.00 39 1017.7
20220818184543 87 345 0.0 4.0 0.00 0.00 0.00 41 1017.8
20220818183033 85 345 0.0 4.0 0.00 0.00 0.00 43 1017.8
20220818181526 83 345 1.0 5.0 0.00 0.00 0.00 45 1018.0
20220818180045 82 345 1.0 4.0 0.00 0.00 0.00 45 1018.1
20220818174533 81 345 1.0 4.0 0.00 0.00 0.00 47 1018.1
20220818173014 80 345 0.0 3.0 0.00 0.00 0.00 49 1018.1
20220818171512 79 345 0.0 4.0 0.00 0.00 0.00 50 1018.0
20220818170015 78 345 0.0 2.0 0.00 0.00 0.00 51 1018.0
20220818164505 76 345 0.0 3.0 0.00 0.00 0.00 53 1017.9
20220818163101 76 345 0.0 3.0 0.00 0.00 0.00 53 1017.9
20220818161607 75 345 1.0 3.0 0.00 0.00 0.00 55 1017.8
20220818160105 74 345 0.0 3.0 0.00 0.00 0.00 57 1017.7
20220818154547 73 345 0.0 3.0 0.00 0.00 0.00 58 1017.6
20220818153043 72 345 0.0 2.0 0.00 0.00 0.00 59 1017.6
20220818151547 71 345 0.0 4.0 0.00 0.00 0.00 60 1017.7
20220818150046 71 345 0.0 0.0 0.00 0.00 0.00 60 1017.5
20220818144545 70 345 0.0 0.0 0.00 0.00 0.00 61 1017.4
20220818143039 69 345 0.0 0.0 0.00 0.00 0.00 63 1017.5
20220818141524 68 345 0.0 0.0 0.00 0.00 0.00 64 1017.4
20220818140023 67 345 0.0 0.0 0.00 0.00 0.00 64 1017.2
20220818134533 67 345 0.0 0.0 0.00 0.00 0.00 63 1017.0
20220818133031 67 345 0.0 0.0 0.00 0.00 0.00 62 1016.9
20220818131513 67 345 0.0 0.0 0.00 0.00 0.00 62 1016.8
20220818130021 67 345 0.0 0.0 0.00 0.00 0.00 61 1016.6
20220818124518 68 345 0.0 0.0 0.00 0.00 0.00 61 1016.6
20220818123005 68 345 0.0 0.0 0.00 0.00 0.00 59 1016.4
20220818121502 69 345 0.0 0.0 0.00 0.00 0.00 58 1016.4
20220818120112 69 345 0.0 0.0 0.00 0.00 0.00 57 1016.5
20220818114558 70 345 0.0 0.0 0.00 0.00 0.00 56 1016.3
20220818113133 70 345 0.0 2.0 0.00 0.00 0.00 56 1016.2
20220818111630 70 345 0.0 0.0 0.00 0.00 0.00 57 1016.3
20220818110105 70 345 0.0 0.0 0.00 0.00 0.00 57 1016.1
20220818104558 71 345 0.0 0.0 0.00 0.00 0.00 56 1016.0
20220818103054 71 345 0.0 0.0 0.00 0.00 0.00 55 1016.1
20220818101655 71 345 0.0 4.0 0.00 0.00 0.00 55 1016.1
20220818100106 71 345 0.0 1.0 0.00 0.00 0.00 57 1016.1
20220818094553 70 345 0.0 0.0 0.00 0.00 0.00 57 1016.0
20220818093051 71 345 0.0 0.0 0.00 0.00 0.00 57 1016.1
20220818091550 71 345 0.0 0.0 0.00 0.00 0.00 57 1016.1
20220818090105 71 345 0.0 1.0 0.00 0.00 0.00 57 1016.2
20220818084553 71 345 0.0 0.0 0.00 0.00 0.00 57 1016.0
20220818083044 72 345 0.0 0.0 0.00 0.00 0.00 56 1016.0
20220818081545 72 345 0.0 2.0 0.00 0.00 0.00 56 1016.1
20220818080104 72 345 0.0 0.0 0.00 0.00 0.00 56 1016.1
20220818074538 73 345 0.0 0.0 0.00 0.00 0.00 55 1016.0
20220818073037 73 345 0.0 0.0 0.00 0.00 0.00 54 1016.0
20220818071537 74 345 0.0 0.0 0.00 0.00 0.00 53 1015.9
20220818070035 74 345 0.0 0.0 0.00 0.00 0.00 53 1016.0
20220818064532 75 345 0.0 2.0 0.00 0.00 0.00 52 1015.9
20220818063030 75 345 0.0 0.0 0.00 0.00 0.00 51 1015.8
20220818061536 76 345 0.0 4.0 0.00 0.00 0.00 50 1015.7
20220818060040 76 345 0.0 0.0 0.00 0.00 0.00 50 1015.5
20220818054528 76 345 0.0 1.0 0.00 0.00 0.00 49 1015.8
20220818053035 77 345 0.0 0.0 0.00 0.00 0.00 49 1015.7
20220818051534 78 345 0.0 5.0 0.00 0.00 0.00 48 1015.3
20220818050035 78 345 0.0 0.0 0.00 0.00 0.00 47 1015.2
20220818044525 80 345 1.0 4.0 0.00 0.00 0.00 46 1015.3
20220818043025 81 345 0.0 0.0 0.00 0.00 0.00 44 1015.3
20220818041525 82 345 0.0 4.0 0.00 0.00 0.00 42 1015.2
20220818040037 83 345 0.0 4.0 0.00 0.00 0.00 41 1015.1
20220818034533 84 345 0.0 5.0 0.00 0.00 0.00 40 1015.0
20220818033039 85 345 0.0 2.0 0.00 0.00 0.00 39 1015.0
20220818031535 86 345 0.0 0.0 0.00 0.00 0.00 38 1015.0
20220818030029 87 345 0.0 0.0 0.00 0.00 0.00 37 1015.0
20220818024522 88 345 0.0 0.0 0.00 0.00 0.00 37 1014.7
20220818023022 89 345 0.0 0.0 0.00 0.00 0.00 36 1014.6
20220818021527 89 345 0.0 0.0 0.00 0.00 0.00 34 1014.7
20220818020035 89 345 0.0 1.0 0.00 0.00 0.00 34 1014.6
20220818014520 89 345 0.0 0.0 0.00 0.00 0.00 34 1014.6
20220818013020 89 345 0.0 5.0 0.00 0.00 0.00 34 1014.6
20220818011532 88 345 0.0 4.0 0.00 0.00 0.00 35 1014.5
20220818010019 88 345 0.0 0.0 0.00 0.00 0.00 34 1014.2
20220818004519 88 345 0.0 0.0 0.00 0.00 0.00 35 1014.4
20220818003018 87 345 0.0 2.0 0.00 0.00 0.00 36 1014.4
20220818001520 87 345 0.0 8.0 0.00 0.00 0.00 34 1014.9
20220818000017 87 355 0.0 3.0 0.00 0.00 0.00 34 1015.5
20220817234541 87 355 1.0 5.0 0.00 0.00 0.00 34 1015.0
20220817233035 88 355 0.0 4.0 0.00 0.00 0.00 34 1014.8
20220817231516 88 355 0.0 2.0 0.00 0.00 0.00 35 1015.1
20220817230035 89 355 1.0 3.0 0.00 0.00 0.00 34 1015.4